Find Starlink 36402

NORAD ID: 68966 Int'l Des: 2026-099 Owner: SPXS Country: US Constellation: starlink operational
LEOCIRCULAR

当前视图

正在加载3D地球...

About Starlink 36402

Starlink 36402 (NORAD 68966) is a starlink constellation satellite (v2 mini) launched May 1, 2026 by SPXS of US. It operates in LEO, CIRCULAR orbit with a mass of 575.00 kg.

关于 Starlink 36402

正在加载描述...

即将过境

Passes for default location (London). Set your location on the main map for personalized predictions.

高度历史

Loading altitude history...

两行轨道根数

1 68966U 26099R 26170.21302234 .00022671 00000-0 68034-3 0 9996
2 68966 53.1618 151.8036 0001576 92.2724 267.8459 15.34387806 7586
Epoch: Jun 19, 2026 • Age: 28 hours

当前状态

高度 480.6 km
速度 7.62 km/s
星下点 -49.37°S, 43.39°E
发射日期 May 1, 2026
运行时间 0.1 years
类型 internet

技术详情

分类 Payload
质量 575.00 kg
干质量 530.00 kg
总质量 575.00 kg
长度 0.30 m
直径 4.10 m
跨度 29.00 m
形状 Box + pan
制造商 SPXS
平台类型 Starlink V2MO
阶段状态 In Orbit
所有者/国家 SPXS/US

Most Searched